Time,TemperatureF,DewpointF,PressureIn,WindDirection,WindDirectionDegrees,WindSpeedMPH,WindSpeedGustMPH,Humidity,HourlyPrecipIn,Conditions,Clouds,dailyrainin,SoftwareType,DateUTC
2013-06-15 00:01:00,56.0,50.0,29.74,NW,315,5.0,5.0,80,0.00,,,0.00,Rainwise IP-100,2013-06-15 04:01:00,
2013-06-15 00:06:00,57.1,50.0,29.74,North,0,3.0,7.0,76,0.00,,,0.00,Rainwise IP-100,2013-06-15 04:06:00,
2013-06-15 00:11:00,56.9,49.0,29.75,NNW,337,5.0,0.0,75,0.00,,,0.00,Rainwise IP-100,2013-06-15 04:11:00,
2013-06-15 00:16:00,56.3,48.0,29.74,NNW,337,5.0,8.0,75,0.00,,,0.00,Rainwise IP-100,2013-06-15 04:16:00,
2013-06-15 00:21:00,56.1,47.0,29.75,West,270,1.0,6.0,74,0.00,,,0.00,Rainwise IP-100,2013-06-15 04:21:00,
2013-06-15 00:26:00,55.9,48.0,29.74,SW,225,0.0,2.0,75,0.00,,,0.00,Rainwise IP-100,2013-06-15 04:26:00,
2013-06-15 00:31:00,55.6,48.0,29.74,South,180,2.0,3.0,76,0.00,,,0.00,Rainwise IP-100,2013-06-15 04:31:00,
2013-06-15 00:36:00,55.2,48.0,29.74,SSW,202,4.0,6.0,78,0.00,,,0.00,Rainwise IP-100,2013-06-15 04:36:00,
2013-06-15 00:41:00,54.7,48.0,29.75,SSW,202,6.0,6.0,80,0.00,,,0.00,Rainwise IP-100,2013-06-15 04:41:00,
2013-06-15 00:46:00,54.2,48.0,29.74,SE,135,7.0,8.0,82,0.00,,,0.00,Rainwise IP-100,2013-06-15 04:46:00,
2013-06-15 00:51:00,53.9,49.0,29.75,South,180,3.0,8.0,83,0.00,,,0.00,Rainwise IP-100,2013-06-15 04:51:00,
2013-06-15 00:56:00,53.6,48.0,29.74,South,180,4.0,5.0,84,0.00,,,0.00,Rainwise IP-100,2013-06-15 04:56:00,
2013-06-15 01:01:00,53.2,48.0,29.75,SSE,157,2.0,6.0,85,0.00,,,0.00,Rainwise IP-100,2013-06-15 05:01:00,
2013-06-15 01:06:00,53.0,48.0,29.75,South,180,4.0,4.0,86,0.00,,,0.00,Rainwise IP-100,2013-06-15 05:06:00,
2013-06-15 01:11:00,52.8,48.0,29.75,South,180,0.0,4.0,86,0.00,,,0.00,Rainwise IP-100,2013-06-15 05:11:00,
2013-06-15 01:16:00,52.7,48.0,29.75,South,180,0.0,1.0,86,0.00,,,0.00,Rainwise IP-100,2013-06-15 05:16:00,
2013-06-15 01:21:00,52.7,48.0,29.75,SE,135,2.0,2.0,86,0.00,,,0.00,Rainwise IP-100,2013-06-15 05:21:00,
2013-06-15 01:26:00,52.8,48.0,29.75,WSW,247,1.0,3.0,86,0.00,,,0.00,Rainwise IP-100,2013-06-15 05:26:00,
2013-06-15 01:31:00,52.8,48.0,29.75,WNW,292,3.0,3.0,86,0.00,,,0.00,Rainwise IP-100,2013-06-15 05:31:00,
2013-06-15 01:36:00,52.8,48.0,29.75,SW,225,0.0,2.0,86,0.00,,,0.00,Rainwise IP-100,2013-06-15 05:36:00,
2013-06-15 01:41:00,52.7,48.0,29.75,SW,225,2.0,2.0,86,0.00,,,0.00,Rainwise IP-100,2013-06-15 05:41:00,
2013-06-15 01:46:00,52.6,49.0,29.75,SW,225,0.0,2.0,87,0.00,,,0.00,Rainwise IP-100,2013-06-15 05:46:00,
2013-06-15 01:51:00,52.6,49.0,29.75,SE,135,2.0,2.0,87,0.00,,,0.00,Rainwise IP-100,2013-06-15 05:51:00,
2013-06-15 01:56:00,52.5,49.0,29.75,WSW,247,0.0,1.0,87,0.00,,,0.00,Rainwise IP-100,2013-06-15 05:56:00,
2013-06-15 02:01:00,52.3,48.0,29.75,SE,135,2.0,2.0,88,0.00,,,0.00,Rainwise IP-100,2013-06-15 06:01:00,
2013-06-15 02:06:00,52.1,48.0,29.75,SSW,202,1.0,2.0,88,0.00,,,0.00,Rainwise IP-100,2013-06-15 06:06:00,
2013-06-15 02:11:00,51.9,49.0,29.75,WNW,292,0.0,2.0,89,0.00,,,0.00,Rainwise IP-100,2013-06-15 06:11:00,
2013-06-15 02:16:00,51.8,49.0,29.75,NNW,337,2.0,2.0,89,0.00,,,0.00,Rainwise IP-100,2013-06-15 06:16:00,
2013-06-15 02:21:00,51.8,49.0,29.75,WNW,292,3.0,4.0,89,0.00,,,0.00,Rainwise IP-100,2013-06-15 06:21:00,
2013-06-15 02:26:00,51.6,49.0,29.74,West,270,0.0,3.0,90,0.00,,,0.00,Rainwise IP-100,2013-06-15 06:26:00,
2013-06-15 02:31:00,51.6,49.0,29.74,WNW,292,2.0,2.0,90,0.00,,,0.00,Rainwise IP-100,2013-06-15 06:31:00,
2013-06-15 02:36:00,51.6,49.0,29.74,NNW,337,0.0,2.0,90,0.00,,,0.00,Rainwise IP-100,2013-06-15 06:36:00,
2013-06-15 02:41:00,51.6,49.0,29.74,NE,45,0.0,0.0,90,0.00,,,0.00,Rainwise IP-100,2013-06-15 06:41:00,
2013-06-15 02:46:00,51.4,49.0,29.74,NE,45,0.0,1.0,91,0.00,,,0.00,Rainwise IP-100,2013-06-15 06:46:00,
2013-06-15 02:51:00,51.4,49.0,29.74,NW,315,0.0,2.0,91,0.00,,,0.00,Rainwise IP-100,2013-06-15 06:51:00,
2013-06-15 02:56:00,51.6,49.0,29.74,North,0,0.0,2.0,91,0.00,,,0.00,Rainwise IP-100,2013-06-15 06:56:00,
2013-06-15 03:01:00,51.9,50.0,29.73,SE,135,2.0,3.0,92,0.00,,,0.00,Rainwise IP-100,2013-06-15 07:01:00,
2013-06-15 03:06:00,52.0,49.0,29.74,SSW,202,3.0,3.0,91,0.00,,,0.00,Rainwise IP-100,2013-06-15 07:06:00,
2013-06-15 03:11:00,51.9,49.0,29.74,SE,135,1.0,4.0,91,0.00,,,0.00,Rainwise IP-100,2013-06-15 07:11:00,
2013-06-15 03:16:00,52.0,49.0,29.74,ESE,112,1.0,4.0,91,0.00,,,0.00,Rainwise IP-100,2013-06-15 07:16:00,
2013-06-15 03:21:00,52.4,50.0,29.74,SSW,202,0.0,5.0,92,0.00,,,0.00,Rainwise IP-100,2013-06-15 07:21:00,
2013-06-15 03:26:00,52.6,50.0,29.74,ENE,67,4.0,4.0,92,0.00,,,0.00,Rainwise IP-100,2013-06-15 07:26:00,
2013-06-15 03:31:00,52.5,50.0,29.74,ESE,112,2.0,4.0,91,0.00,,,0.00,Rainwise IP-100,2013-06-15 07:31:00,
2013-06-15 03:36:00,52.3,49.0,29.74,NW,315,5.0,5.0,91,0.00,,,0.00,Rainwise IP-100,2013-06-15 07:36:00,
2013-06-15 03:41:00,53.2,50.0,29.74,NW,315,8.0,0.0,92,0.00,,,0.00,Rainwise IP-100,2013-06-15 07:41:00,
2013-06-15 03:46:00,54.7,53.0,29.75,NW,315,7.0,7.0,92,0.00,,,0.00,Rainwise IP-100,2013-06-15 07:46:00,
2013-06-15 03:51:00,55.9,53.0,29.74,NW,315,8.0,8.0,91,0.00,,,0.00,Rainwise IP-100,2013-06-15 07:51:00,
2013-06-15 03:56:00,56.5,53.0,29.75,West,270,0.0,2.0,89,0.00,,,0.00,Rainwise IP-100,2013-06-15 07:56:00,
2013-06-15 04:01:00,56.7,53.0,29.75,NW,315,5.0,5.0,88,0.00,,,0.00,Rainwise IP-100,2013-06-15 08:01:00,
2013-06-15 04:06:00,56.8,53.0,29.75,West,270,7.0,7.0,88,0.00,,,0.00,Rainwise IP-100,2013-06-15 08:06:00,
2013-06-15 04:11:00,56.7,53.0,29.75,WNW,292,0.0,8.0,89,0.00,,,0.00,Rainwise IP-100,2013-06-15 08:11:00,
2013-06-15 04:16:00,56.7,53.0,29.75,West,270,9.0,9.0,89,0.00,,,0.00,Rainwise IP-100,2013-06-15 08:16:00,
2013-06-15 04:21:00,56.6,53.0,29.75,WNW,292,9.0,9.0,89,0.00,,,0.00,Rainwise IP-100,2013-06-15 08:21:00,
2013-06-15 04:26:00,56.6,53.0,29.75,NW,315,8.0,8.0,89,0.00,,,0.00,Rainwise IP-100,2013-06-15 08:26:00,
2013-06-15 04:31:00,56.7,53.0,29.76,WNW,292,9.0,9.0,89,0.00,,,0.00,Rainwise IP-100,2013-06-15 08:31:00,
2013-06-15 04:36:00,56.7,53.0,29.76,West,270,0.0,4.0,89,0.00,,,0.00,Rainwise IP-100,2013-06-15 08:36:00,
2013-06-15 04:37:00,56.7,53.0,29.76,NW,315,0.0,4.0,89,0.00,,,0.00,Rainwise IP-100,2013-06-15 08:37:00,
2013-06-15 04:42:00,56.6,53.0,29.76,WNW,292,9.0,9.0,89,0.00,,,0.00,Rainwise IP-100,2013-06-15 08:42:00,
2013-06-15 04:47:00,56.7,53.0,29.76,NW,315,8.0,8.0,87,0.00,,,0.00,Rainwise IP-100,2013-06-15 08:47:00,
2013-06-15 04:52:00,56.7,53.0,29.77,NW,315,8.0,8.0,86,0.00,,,0.00,Rainwise IP-100,2013-06-15 08:52:00,
2013-06-15 04:57:00,56.6,53.0,29.77,NW,315,0.0,3.0,86,0.00,,,0.00,Rainwise IP-100,2013-06-15 08:57:00,
2013-06-15 05:02:00,56.5,52.0,29.77,NW,315,6.0,6.0,85,0.00,,,0.00,Rainwise IP-100,2013-06-15 09:02:00,
2013-06-15 05:07:00,56.5,52.0,29.77,NW,315,7.0,7.0,85,0.00,,,0.00,Rainwise IP-100,2013-06-15 09:07:00,
2013-06-15 05:12:00,56.5,52.0,29.76,WNW,292,8.0,8.0,84,0.00,,,0.00,Rainwise IP-100,2013-06-15 09:12:00,
2013-06-15 05:17:00,56.5,52.0,29.77,NNW,337,8.0,8.0,84,0.00,,,0.00,Rainwise IP-100,2013-06-15 09:17:00,
2013-06-15 05:22:00,56.6,52.0,29.77,NW,315,6.0,6.0,84,0.00,,,0.00,Rainwise IP-100,2013-06-15 09:22:00,
2013-06-15 05:27:00,56.7,51.0,29.77,North,0,6.0,6.0,83,0.00,,,0.00,Rainwise IP-100,2013-06-15 09:27:00,
2013-06-15 05:32:00,56.9,52.0,29.78,NW,315,8.0,8.0,83,0.00,,,0.00,Rainwise IP-100,2013-06-15 09:32:00,
2013-06-15 05:37:00,57.0,52.0,29.78,North,0,4.0,4.0,83,0.00,,,0.00,Rainwise IP-100,2013-06-15 09:37:00,
2013-06-15 05:42:00,57.1,52.0,29.78,NNW,337,9.0,0.0,84,0.00,,,0.00,Rainwise IP-100,2013-06-15 09:42:00,
2013-06-15 05:47:00,57.0,52.0,29.78,NW,315,9.0,9.0,84,0.00,,,0.00,Rainwise IP-100,2013-06-15 09:47:00,
2013-06-15 05:52:00,56.8,52.0,29.78,NNW,337,9.0,9.0,84,0.00,,,0.00,Rainwise IP-100,2013-06-15 09:52:00,
2013-06-15 05:57:00,56.9,52.0,29.78,NNW,337,8.0,8.0,83,0.00,,,0.00,Rainwise IP-100,2013-06-15 09:57:00,
2013-06-15 06:02:00,57.1,52.0,29.79,NNW,337,0.0,1.0,82,0.00,,,0.00,Rainwise IP-100,2013-06-15 10:02:00,
2013-06-15 06:07:00,57.5,52.0,29.79,NNW,337,6.0,6.0,82,0.00,,,0.00,Rainwise IP-100,2013-06-15 10:07:00,
2013-06-15 06:12:00,57.9,53.0,29.79,NNW,337,8.0,8.0,81,0.00,,,0.00,Rainwise IP-100,2013-06-15 10:12:00,
2013-06-15 06:17:00,58.1,52.0,29.79,NNW,337,8.0,0.0,80,0.00,,,0.00,Rainwise IP-100,2013-06-15 10:17:00,
2013-06-15 06:22:00,58.4,52.0,29.80,NNW,337,4.0,4.0,79,0.00,,,0.00,Rainwise IP-100,2013-06-15 10:22:00,
2013-06-15 06:27:00,58.6,53.0,29.80,NNW,337,5.0,9.0,79,0.00,,,0.00,Rainwise IP-100,2013-06-15 10:27:00,
2013-06-15 06:32:00,58.9,52.0,29.81,NNW,337,7.0,7.0,78,0.00,,,0.00,Rainwise IP-100,2013-06-15 10:32:00,
2013-06-15 06:37:00,59.2,52.0,29.81,NW,315,8.0,8.0,77,0.00,,,0.00,Rainwise IP-100,2013-06-15 10:37:00,
2013-06-15 06:42:00,59.6,51.0,29.81,NNW,337,8.0,9.0,75,0.00,,,0.00,Rainwise IP-100,2013-06-15 10:42:00,
2013-06-15 06:47:00,59.8,50.0,29.80,NNE,22,3.0,3.0,73,0.00,,,0.00,Rainwise IP-100,2013-06-15 10:47:00,
2013-06-15 06:52:00,59.8,50.0,29.80,NNW,337,9.0,9.0,72,0.00,,,0.00,Rainwise IP-100,2013-06-15 10:52:00,
2013-06-15 06:57:00,59.8,50.0,29.81,NNW,337,8.0,8.0,72,0.00,,,0.00,Rainwise IP-100,2013-06-15 10:57:00,
2013-06-15 07:02:00,59.9,50.0,29.81,NNW,337,9.0,9.0,72,0.00,,,0.00,Rainwise IP-100,2013-06-15 11:02:00,
2013-06-15 07:07:00,59.8,50.0,29.81,NNW,337,0.0,5.0,71,0.00,,,0.00,Rainwise IP-100,2013-06-15 11:07:00,
2013-06-15 07:12:00,59.5,50.0,29.81,NNW,337,0.0,0.0,71,0.00,,,0.00,Rainwise IP-100,2013-06-15 11:12:00,
2013-06-15 07:17:00,59.5,50.0,29.82,NW,315,0.0,5.0,70,0.00,,,0.00,Rainwise IP-100,2013-06-15 11:17:00,
2013-06-15 07:22:00,59.9,50.0,29.81,NNW,337,8.0,8.0,69,0.00,,,0.00,Rainwise IP-100,2013-06-15 11:22:00,
2013-06-15 07:27:00,60.3,49.0,29.81,NNW,337,0.0,5.0,68,0.00,,,0.00,Rainwise IP-100,2013-06-15 11:27:00,
2013-06-15 07:32:00,60.5,50.0,29.81,North,0,7.0,7.0,68,0.00,,,0.00,Rainwise IP-100,2013-06-15 11:32:00,
2013-06-15 07:37:00,60.7,50.0,29.81,NNW,337,9.0,9.0,68,0.00,,,0.00,Rainwise IP-100,2013-06-15 11:37:00,
2013-06-15 07:42:00,60.9,50.0,29.81,NNW,337,0.0,6.0,67,0.00,,,0.00,Rainwise IP-100,2013-06-15 11:42:00,
2013-06-15 07:47:00,61.1,50.0,29.81,North,0,7.0,7.0,66,0.00,,,0.00,Rainwise IP-100,2013-06-15 11:47:00,
2013-06-15 07:52:00,61.5,50.0,29.82,NNW,337,8.0,8.0,66,0.00,,,0.00,Rainwise IP-100,2013-06-15 11:52:00,
2013-06-15 07:57:00,62.0,50.0,29.83,North,0,5.0,5.0,65,0.00,,,0.00,Rainwise IP-100,2013-06-15 11:57:00,
2013-06-15 08:02:00,62.3,50.0,29.83,North,0,9.0,9.0,65,0.00,,,0.00,Rainwise IP-100,2013-06-15 12:02:00,
2013-06-15 08:07:00,62.5,50.0,29.82,North,0,3.0,3.0,64,0.00,,,0.00,Rainwise IP-100,2013-06-15 12:07:00,
2013-06-15 08:12:00,62.8,49.0,29.82,NNW,337,0.0,8.0,62,0.00,,,0.00,Rainwise IP-100,2013-06-15 12:12:00,
2013-06-15 08:17:00,63.2,49.0,29.83,NNW,337,9.0,9.0,61,0.00,,,0.00,Rainwise IP-100,2013-06-15 12:17:00,
2013-06-15 08:22:00,63.5,49.0,29.83,NNE,22,2.0,0.0,60,0.00,,,0.00,Rainwise IP-100,2013-06-15 12:22:00,
2013-06-15 08:27:00,63.9,50.0,29.83,SSE,157,0.0,8.0,60,0.00,,,0.00,Rainwise IP-100,2013-06-15 12:27:00,
2013-06-15 08:32:00,64.6,50.0,29.83,North,0,2.0,9.0,60,0.00,,,0.00,Rainwise IP-100,2013-06-15 12:32:00,
2013-06-15 08:37:00,65.3,50.0,29.83,SSE,157,0.0,9.0,59,0.00,,,0.00,Rainwise IP-100,2013-06-15 12:37:00,
2013-06-15 08:42:00,65.7,50.0,29.83,ENE,67,0.0,7.0,58,0.00,,,0.00,Rainwise IP-100,2013-06-15 12:42:00,
2013-06-15 08:47:00,66.1,50.0,29.82,NNW,337,7.0,7.0,57,0.00,,,0.00,Rainwise IP-100,2013-06-15 12:47:00,
2013-06-15 08:52:00,66.0,49.0,29.83,NNW,337,0.0,2.0,55,0.00,,,0.00,Rainwise IP-100,2013-06-15 12:52:00,
2013-06-15 08:57:00,65.7,48.0,29.83,NNW,337,0.0,4.0,54,0.00,,,0.00,Rainwise IP-100,2013-06-15 12:57:00,
2013-06-15 09:02:00,65.4,48.0,29.82,North,0,2.0,4.0,54,0.00,,,0.00,Rainwise IP-100,2013-06-15 13:02:00,
2013-06-15 09:07:00,65.3,47.0,29.83,North,0,4.0,4.0,54,0.00,,,0.00,Rainwise IP-100,2013-06-15 13:07:00,
2013-06-15 09:12:00,65.4,48.0,29.83,West,270,6.0,6.0,54,0.00,,,0.00,Rainwise IP-100,2013-06-15 13:12:00,
2013-06-15 09:17:00,65.7,47.0,29.83,North,0,8.0,8.0,53,0.00,,,0.00,Rainwise IP-100,2013-06-15 13:17:00,
2013-06-15 09:22:00,65.9,48.0,29.83,North,0,0.0,3.0,53,0.00,,,0.00,Rainwise IP-100,2013-06-15 13:22:00,
2013-06-15 09:27:00,66.1,48.0,29.83,North,0,0.0,0.0,53,0.00,,,0.00,Rainwise IP-100,2013-06-15 13:27:00,
2013-06-15 09:32:00,66.4,48.0,29.83,NW,315,8.0,0.0,52,0.00,,,0.00,Rainwise IP-100,2013-06-15 13:32:00,
2013-06-15 09:37:00,66.7,48.0,29.83,NNE,22,0.0,0.0,52,0.00,,,0.00,Rainwise IP-100,2013-06-15 13:37:00,
2013-06-15 09:42:00,67.2,48.0,29.83,East,90,1.0,6.0,51,0.00,,,0.00,Rainwise IP-100,2013-06-15 13:42:00,
2013-06-15 09:47:00,67.7,48.0,29.83,East,90,2.0,7.0,50,0.00,,,0.00,Rainwise IP-100,2013-06-15 13:47:00,
2013-06-15 09:52:00,67.9,48.0,29.83,NE,45,1.0,2.0,49,0.00,,,0.00,Rainwise IP-100,2013-06-15 13:52:00,
2013-06-15 09:57:00,68.1,48.0,29.84,North,0,4.0,7.0,49,0.00,,,0.00,Rainwise IP-100,2013-06-15 13:57:00,
2013-06-15 10:02:00,68.5,48.0,29.83,NNW,337,0.0,7.0,49,0.00,,,0.00,Rainwise IP-100,2013-06-15 14:02:00,
2013-06-15 10:07:00,68.8,48.0,29.83,NNE,22,2.0,0.0,48,0.00,,,0.00,Rainwise IP-100,2013-06-15 14:07:00,
2013-06-15 10:12:00,69.0,47.0,29.84,North,0,1.0,4.0,47,0.00,,,0.00,Rainwise IP-100,2013-06-15 14:12:00,
2013-06-15 10:17:00,69.0,47.0,29.84,SE,135,4.0,6.0,47,0.00,,,0.00,Rainwise IP-100,2013-06-15 14:17:00,
2013-06-15 10:22:00,68.9,47.0,29.84,SE,135,2.0,4.0,46,0.00,,,0.00,Rainwise IP-100,2013-06-15 14:22:00,
2013-06-15 10:27:00,69.1,47.0,29.84,NE,45,2.0,9.0,46,0.00,,,0.00,Rainwise IP-100,2013-06-15 14:27:00,
2013-06-15 10:32:00,69.5,48.0,29.84,NW,315,1.0,9.0,46,0.00,,,0.00,Rainwise IP-100,2013-06-15 14:32:00,
2013-06-15 10:37:00,69.7,48.0,29.84,East,90,2.0,5.0,46,0.00,,,0.00,Rainwise IP-100,2013-06-15 14:37:00,
2013-06-15 10:42:00,69.7,48.0,29.84,East,90,0.0,9.0,46,0.00,,,0.00,Rainwise IP-100,2013-06-15 14:42:00,
2013-06-15 10:47:00,69.7,48.0,29.84,West,270,1.0,4.0,46,0.00,,,0.00,Rainwise IP-100,2013-06-15 14:47:00,
2013-06-15 10:52:00,69.9,48.0,29.84,North,0,0.0,7.0,46,0.00,,,0.00,Rainwise IP-100,2013-06-15 14:52:00,
2013-06-15 10:57:00,70.1,48.0,29.84,NNE,22,3.0,5.0,46,0.00,,,0.00,Rainwise IP-100,2013-06-15 14:57:00,
2013-06-15 11:02:00,70.3,47.0,29.84,North,0,1.0,8.0,45,0.00,,,0.00,Rainwise IP-100,2013-06-15 15:02:00,
2013-06-15 11:07:00,70.6,48.0,29.84,North,0,4.0,4.0,45,0.00,,,0.00,Rainwise IP-100,2013-06-15 15:07:00,
2013-06-15 11:12:00,70.9,48.0,29.84,NE,45,4.0,4.0,45,0.00,,,0.00,Rainwise IP-100,2013-06-15 15:12:00,
2013-06-15 11:17:00,70.8,48.0,29.84,NW,315,8.0,8.0,45,0.00,,,0.00,Rainwise IP-100,2013-06-15 15:17:00,
2013-06-15 11:22:00,70.6,47.0,29.83,North,0,8.0,8.0,44,0.00,,,0.00,Rainwise IP-100,2013-06-15 15:22:00,
2013-06-15 11:27:00,70.6,47.0,29.83,NNW,337,7.0,0.0,44,0.00,,,0.00,Rainwise IP-100,2013-06-15 15:27:00,
2013-06-15 11:32:00,70.7,47.0,29.83,NNE,22,3.0,4.0,44,0.00,,,0.00,Rainwise IP-100,2013-06-15 15:32:00,
2013-06-15 11:37:00,70.7,47.0,29.84,ENE,67,2.0,3.0,44,0.00,,,0.00,Rainwise IP-100,2013-06-15 15:37:00,
2013-06-15 11:42:00,70.7,47.0,29.84,NE,45,0.0,8.0,44,0.00,,,0.00,Rainwise IP-100,2013-06-15 15:42:00,
2013-06-15 11:47:00,70.7,47.0,29.83,North,0,4.0,4.0,44,0.00,,,0.00,Rainwise IP-100,2013-06-15 15:47:00,
2013-06-15 11:52:00,70.8,47.0,29.83,North,0,5.0,5.0,43,0.00,,,0.00,Rainwise IP-100,2013-06-15 15:52:00,
2013-06-15 11:57:00,70.8,47.0,29.84,NNW,337,6.0,6.0,43,0.00,,,0.00,Rainwise IP-100,2013-06-15 15:57:00,
2013-06-15 12:02:00,70.8,47.0,29.84,NNW,337,5.0,5.0,43,0.00,,,0.00,Rainwise IP-100,2013-06-15 16:02:00,
2013-06-15 12:07:00,70.9,47.0,29.84,West,270,0.0,0.0,44,0.00,,,0.00,Rainwise IP-100,2013-06-15 16:07:00,
2013-06-15 12:12:00,70.9,47.0,29.83,NNW,337,3.0,3.0,44,0.00,,,0.00,Rainwise IP-100,2013-06-15 16:12:00,
2013-06-15 12:17:00,71.1,47.0,29.83,East,90,2.0,9.0,44,0.00,,,0.00,Rainwise IP-100,2013-06-15 16:17:00,
2013-06-15 12:22:00,71.3,47.0,29.83,NNW,337,2.0,8.0,43,0.00,,,0.00,Rainwise IP-100,2013-06-15 16:22:00,
2013-06-15 12:27:00,71.6,47.0,29.83,SE,135,0.0,8.0,42,0.00,,,0.00,Rainwise IP-100,2013-06-15 16:27:00,
2013-06-15 12:32:00,72.1,47.0,29.83,NE,45,1.0,3.0,40,0.00,,,0.00,Rainwise IP-100,2013-06-15 16:32:00,
2013-06-15 12:37:00,72.5,47.0,29.83,NNW,337,1.0,7.0,40,0.00,,,0.00,Rainwise IP-100,2013-06-15 16:37:00,
2013-06-15 12:42:00,72.9,47.0,29.83,NNW,337,4.0,8.0,40,0.00,,,0.00,Rainwise IP-100,2013-06-15 16:42:00,
2013-06-15 12:47:00,73.2,47.0,29.84,North,0,0.0,1.0,40,0.00,,,0.00,Rainwise IP-100,2013-06-15 16:47:00,
2013-06-15 12:52:00,73.4,47.0,29.83,North,0,4.0,9.0,40,0.00,,,0.00,Rainwise IP-100,2013-06-15 16:52:00,
2013-06-15 12:57:00,73.7,48.0,29.84,NNW,337,5.0,0.0,40,0.00,,,0.00,Rainwise IP-100,2013-06-15 16:57:00,
2013-06-15 13:02:00,73.8,48.0,29.84,NW,315,5.0,5.0,40,0.00,,,0.00,Rainwise IP-100,2013-06-15 17:02:00,
2013-06-15 13:07:00,74.1,47.0,29.83,NNW,337,4.0,4.0,39,0.00,,,0.00,Rainwise IP-100,2013-06-15 17:07:00,
2013-06-15 13:12:00,74.2,47.0,29.82,North,0,4.0,4.0,37,0.00,,,0.00,Rainwise IP-100,2013-06-15 17:12:00,
2013-06-15 13:17:00,73.9,46.0,29.83,NNE,22,4.0,9.0,37,0.00,,,0.00,Rainwise IP-100,2013-06-15 17:17:00,
2013-06-15 13:22:00,73.6,47.0,29.83,North,0,8.0,8.0,38,0.00,,,0.00,Rainwise IP-100,2013-06-15 17:22:00,
2013-06-15 13:27:00,73.5,47.0,29.83,NE,45,5.0,0.0,38,0.00,,,0.00,Rainwise IP-100,2013-06-15 17:27:00,
2013-06-15 13:32:00,73.6,45.0,29.83,WSW,247,1.0,3.0,36,0.00,,,0.00,Rainwise IP-100,2013-06-15 17:32:00,
2013-06-15 13:37:00,73.9,46.0,29.82,ESE,112,2.0,8.0,37,0.00,,,0.00,Rainwise IP-100,2013-06-15 17:37:00,
2013-06-15 13:42:00,73.8,46.0,29.82,East,90,0.0,0.0,37,0.00,,,0.00,Rainwise IP-100,2013-06-15 17:42:00,
2013-06-15 13:47:00,73.3,47.0,29.83,North,0,4.0,4.0,38,0.00,,,0.00,Rainwise IP-100,2013-06-15 17:47:00,
2013-06-15 13:52:00,73.3,47.0,29.82,WNW,292,1.0,1.0,39,0.00,,,0.00,Rainwise IP-100,2013-06-15 17:52:00,
2013-06-15 13:57:00,73.8,47.0,29.82,NW,315,8.0,0.0,39,0.00,,,0.00,Rainwise IP-100,2013-06-15 17:57:00,
2013-06-15 14:02:00,74.1,47.0,29.81,NNW,337,0.0,1.0,38,0.00,,,0.00,Rainwise IP-100,2013-06-15 18:02:00,
2013-06-15 14:07:00,74.1,46.0,29.82,NNW,337,0.0,6.0,36,0.00,,,0.00,Rainwise IP-100,2013-06-15 18:07:00,
2013-06-15 14:12:00,74.1,46.0,29.83,North,0,4.0,4.0,36,0.00,,,0.00,Rainwise IP-100,2013-06-15 18:12:00,
2013-06-15 14:17:00,74.2,46.0,29.83,North,0,0.0,4.0,36,0.00,,,0.00,Rainwise IP-100,2013-06-15 18:17:00,
2013-06-15 14:22:00,74.2,47.0,29.82,NNW,337,5.0,8.0,37,0.00,,,0.00,Rainwise IP-100,2013-06-15 18:22:00,
2013-06-15 14:27:00,73.7,47.0,29.82,North,0,4.0,7.0,38,0.00,,,0.00,Rainwise IP-100,2013-06-15 18:27:00,
2013-06-15 14:32:00,73.8,47.0,29.82,NW,315,0.0,9.0,38,0.00,,,0.00,Rainwise IP-100,2013-06-15 18:32:00,
2013-06-15 14:37:00,74.3,45.0,29.82,NNW,337,0.0,7.0,35,0.00,,,0.00,Rainwise IP-100,2013-06-15 18:37:00,
2013-06-15 14:42:00,74.6,45.0,29.82,NNW,337,2.0,6.0,34,0.00,,,0.00,Rainwise IP-100,2013-06-15 18:42:00,
2013-06-15 14:47:00,75.0,47.0,29.82,NNW,337,0.0,5.0,36,0.00,,,0.00,Rainwise IP-100,2013-06-15 18:47:00,
2013-06-15 14:52:00,74.7,46.0,29.82,NNW,337,0.0,1.0,36,0.00,,,0.00,Rainwise IP-100,2013-06-15 18:52:00,
2013-06-15 14:57:00,74.0,45.0,29.81,NNW,337,0.0,0.0,35,0.00,,,0.00,Rainwise IP-100,2013-06-15 18:57:00,
2013-06-15 15:02:00,73.9,44.0,29.82,NW,315,0.0,3.0,34,0.00,,,0.00,Rainwise IP-100,2013-06-15 19:02:00,
2013-06-15 15:07:00,74.3,43.0,29.82,NW,315,0.0,9.0,33,0.00,,,0.00,Rainwise IP-100,2013-06-15 19:07:00,
2013-06-15 15:12:00,74.6,45.0,29.82,NNW,337,8.0,0.0,34,0.00,,,0.00,Rainwise IP-100,2013-06-15 19:12:00,
2013-06-15 15:17:00,74.7,47.0,29.82,NW,315,9.0,9.0,37,0.00,,,0.00,Rainwise IP-100,2013-06-15 19:17:00,
2013-06-15 15:22:00,74.4,47.0,29.81,NW,315,0.0,0.0,37,0.00,,,0.00,Rainwise IP-100,2013-06-15 19:22:00,
2013-06-15 15:27:00,74.6,45.0,29.81,NW,315,0.0,1.0,35,0.00,,,0.00,Rainwise IP-100,2013-06-15 19:27:00,
2013-06-15 15:32:00,74.8,44.0,29.82,NW,315,0.0,1.0,33,0.00,,,0.00,Rainwise IP-100,2013-06-15 19:32:00,
2013-06-15 15:37:00,74.8,44.0,29.81,NNW,337,0.0,1.0,33,0.00,,,0.00,Rainwise IP-100,2013-06-15 19:37:00,
2013-06-15 15:42:00,75.0,46.0,29.81,NNW,337,0.0,6.0,35,0.00,,,0.00,Rainwise IP-100,2013-06-15 19:42:00,
2013-06-15 15:47:00,74.7,45.0,29.81,NW,315,0.0,0.0,35,0.00,,,0.00,Rainwise IP-100,2013-06-15 19:47:00,
2013-06-15 15:48:00,74.6,45.0,29.81,NNW,337,0.0,9.0,35,0.00,,,0.00,Rainwise IP-100,2013-06-15 19:48:00,
2013-06-15 15:53:00,74.2,45.0,29.81,NW,315,0.0,1.0,35,0.00,,,0.00,Rainwise IP-100,2013-06-15 19:53:00,
2013-06-15 15:58:00,74.0,44.0,29.81,NNW,337,0.0,9.0,34,0.00,,,0.00,Rainwise IP-100,2013-06-15 19:58:00,
2013-06-15 16:03:00,74.0,43.0,29.81,NNW,337,0.0,8.0,33,0.00,,,0.00,Rainwise IP-100,2013-06-15 20:03:00,
2013-06-15 16:08:00,74.4,44.0,29.81,NW,315,0.0,4.0,34,0.00,,,0.00,Rainwise IP-100,2013-06-15 20:08:00,
2013-06-15 16:13:00,74.7,45.0,29.81,NNW,337,8.0,8.0,35,0.00,,,0.00,Rainwise IP-100,2013-06-15 20:13:00,
2013-06-15 16:18:00,74.8,45.0,29.81,NNW,337,7.0,7.0,35,0.00,,,0.00,Rainwise IP-100,2013-06-15 20:18:00,
2013-06-15 16:23:00,74.7,45.0,29.80,NW,315,0.0,9.0,35,0.00,,,0.00,Rainwise IP-100,2013-06-15 20:23:00,
2013-06-15 16:28:00,74.7,45.0,29.80,NNW,337,0.0,9.0,34,0.00,,,0.00,Rainwise IP-100,2013-06-15 20:28:00,
2013-06-15 16:33:00,74.9,43.0,29.80,NW,315,0.0,8.0,32,0.00,,,0.00,Rainwise IP-100,2013-06-15 20:33:00,
2013-06-15 16:38:00,75.1,44.0,29.80,NW,315,8.0,8.0,33,0.00,,,0.00,Rainwise IP-100,2013-06-15 20:38:00,
2013-06-15 16:43:00,75.1,44.0,29.80,NW,315,8.0,8.0,33,0.00,,,0.00,Rainwise IP-100,2013-06-15 20:43:00,
2013-06-15 16:48:00,74.8,44.0,29.80,NW,315,0.0,8.0,33,0.00,,,0.00,Rainwise IP-100,2013-06-15 20:48:00,
2013-06-15 16:53:00,73.9,44.0,29.80,NW,315,0.0,6.0,34,0.00,,,0.00,Rainwise IP-100,2013-06-15 20:53:00,
2013-06-15 16:58:00,73.5,44.0,29.80,NNW,337,7.0,7.0,34,0.00,,,0.00,Rainwise IP-100,2013-06-15 20:58:00,
2013-06-15 17:03:00,73.9,44.0,29.80,WNW,292,5.0,5.0,34,0.00,,,0.00,Rainwise IP-100,2013-06-15 21:03:00,
2013-06-15 17:08:00,74.2,44.0,29.80,NNW,337,5.0,8.0,34,0.00,,,0.00,Rainwise IP-100,2013-06-15 21:08:00,
2013-06-15 17:13:00,74.7,45.0,29.80,NNW,337,4.0,7.0,34,0.00,,,0.00,Rainwise IP-100,2013-06-15 21:13:00,
2013-06-15 17:18:00,74.7,45.0,29.80,NNW,337,5.0,0.0,35,0.00,,,0.00,Rainwise IP-100,2013-06-15 21:18:00,
2013-06-15 17:23:00,74.3,45.0,29.80,NW,315,4.0,8.0,35,0.00,,,0.00,Rainwise IP-100,2013-06-15 21:23:00,
2013-06-15 17:28:00,73.7,44.0,29.80,WNW,292,0.0,2.0,34,0.00,,,0.00,Rainwise IP-100,2013-06-15 21:28:00,
2013-06-15 17:33:00,73.4,44.0,29.81,West,270,6.0,6.0,35,0.00,,,0.00,Rainwise IP-100,2013-06-15 21:33:00,
2013-06-15 17:38:00,73.5,44.0,29.81,NW,315,6.0,7.0,35,0.00,,,0.00,Rainwise IP-100,2013-06-15 21:38:00,
2013-06-15 17:43:00,73.8,44.0,29.81,NNW,337,4.0,7.0,35,0.00,,,0.00,Rainwise IP-100,2013-06-15 21:43:00,
2013-06-15 17:48:00,73.9,45.0,29.80,WNW,292,0.0,2.0,35,0.00,,,0.00,Rainwise IP-100,2013-06-15 21:48:00,
2013-06-15 17:53:00,73.8,44.0,29.80,NW,315,0.0,5.0,34,0.00,,,0.00,Rainwise IP-100,2013-06-15 21:53:00,
2013-06-15 17:58:00,73.6,44.0,29.81,West,270,6.0,7.0,34,0.00,,,0.00,Rainwise IP-100,2013-06-15 21:58:00,
2013-06-15 18:03:00,73.2,44.0,29.81,WNW,292,7.0,7.0,35,0.00,,,0.00,Rainwise IP-100,2013-06-15 22:03:00,
2013-06-15 18:08:00,72.8,45.0,29.81,West,270,0.0,0.0,37,0.00,,,0.00,Rainwise IP-100,2013-06-15 22:08:00,
2013-06-15 18:13:00,72.6,46.0,29.81,NW,315,3.0,9.0,38,0.00,,,0.00,Rainwise IP-100,2013-06-15 22:13:00,
2013-06-15 18:18:00,72.7,47.0,29.82,West,270,9.0,9.0,39,0.00,,,0.00,Rainwise IP-100,2013-06-15 22:18:00,
2013-06-15 18:23:00,72.9,46.0,29.82,SW,225,6.0,6.0,38,0.00,,,0.00,Rainwise IP-100,2013-06-15 22:23:00,
2013-06-15 18:28:00,73.1,46.0,29.82,SSE,157,3.0,9.0,38,0.00,,,0.00,Rainwise IP-100,2013-06-15 22:28:00,
2013-06-15 18:33:00,73.3,47.0,29.82,WSW,247,5.0,0.0,38,0.00,,,0.00,Rainwise IP-100,2013-06-15 22:33:00,
2013-06-15 18:38:00,73.2,47.0,29.81,WSW,247,6.0,9.0,38,0.00,,,0.00,Rainwise IP-100,2013-06-15 22:38:00,
2013-06-15 18:43:00,73.0,46.0,29.82,SW,225,5.0,8.0,38,0.00,,,0.00,Rainwise IP-100,2013-06-15 22:43:00,
2013-06-15 18:48:00,73.0,47.0,29.82,WSW,247,4.0,0.0,39,0.00,,,0.00,Rainwise IP-100,2013-06-15 22:48:00,
2013-06-15 18:53:00,72.9,47.0,29.82,WNW,292,5.0,9.0,39,0.00,,,0.00,Rainwise IP-100,2013-06-15 22:53:00,
2013-06-15 18:58:00,73.0,47.0,29.82,WSW,247,5.0,8.0,39,0.00,,,0.00,Rainwise IP-100,2013-06-15 22:58:00,
2013-06-15 19:03:00,73.0,47.0,29.82,NW,315,4.0,8.0,39,0.00,,,0.00,Rainwise IP-100,2013-06-15 23:03:00,
2013-06-15 19:08:00,73.1,47.0,29.82,West,270,7.0,8.0,40,0.00,,,0.00,Rainwise IP-100,2013-06-15 23:08:00,
2013-06-15 19:13:00,72.8,47.0,29.82,West,270,7.0,9.0,40,0.00,,,0.00,Rainwise IP-100,2013-06-15 23:13:00,
2013-06-15 19:18:00,72.6,47.0,29.82,WNW,292,7.0,0.0,40,0.00,,,0.00,Rainwise IP-100,2013-06-15 23:18:00,
2013-06-15 19:23:00,73.1,46.0,29.82,WNW,292,0.0,3.0,38,0.00,,,0.00,Rainwise IP-100,2013-06-15 23:23:00,
2013-06-15 19:28:00,73.0,45.0,29.82,NW,315,6.0,6.0,36,0.00,,,0.00,Rainwise IP-100,2013-06-15 23:28:00,
2013-06-15 19:33:00,72.5,44.0,29.82,WNW,292,9.0,9.0,36,0.00,,,0.00,Rainwise IP-100,2013-06-15 23:33:00,
2013-06-15 19:38:00,72.3,44.0,29.82,WNW,292,8.0,8.0,36,0.00,,,0.00,Rainwise IP-100,2013-06-15 23:38:00,
2013-06-15 19:43:00,72.1,43.0,29.82,West,270,7.0,0.0,36,0.00,,,0.00,Rainwise IP-100,2013-06-15 23:43:00,
2013-06-15 19:48:00,71.5,44.0,29.83,West,270,7.0,7.0,37,0.00,,,0.00,Rainwise IP-100,2013-06-15 23:48:00,
2013-06-15 19:53:00,70.6,45.0,29.83,West,270,7.0,0.0,40,0.00,,,0.00,Rainwise IP-100,2013-06-15 23:53:00,
2013-06-15 19:58:00,69.8,46.0,29.83,West,270,5.0,9.0,42,0.00,,,0.00,Rainwise IP-100,2013-06-15 23:58:00,
2013-06-15 20:03:00,69.4,45.0,29.84,West,270,7.0,0.0,42,0.00,,,0.00,Rainwise IP-100,2013-06-16 00:03:00,
2013-06-15 20:08:00,69.0,46.0,29.84,West,270,7.0,9.0,43,0.00,,,0.00,Rainwise IP-100,2013-06-16 00:08:00,
2013-06-15 20:13:00,68.5,47.0,29.84,West,270,7.0,8.0,45,0.00,,,0.00,Rainwise IP-100,2013-06-16 00:13:00,
2013-06-15 20:18:00,68.3,46.0,29.84,West,270,4.0,9.0,45,0.00,,,0.00,Rainwise IP-100,2013-06-16 00:18:00,
2013-06-15 20:23:00,68.0,47.0,29.84,West,270,7.0,9.0,46,0.00,,,0.00,Rainwise IP-100,2013-06-16 00:23:00,
2013-06-15 20:28:00,67.7,46.0,29.84,West,270,2.0,9.0,46,0.00,,,0.00,Rainwise IP-100,2013-06-16 00:28:00,
2013-06-15 20:33:00,67.4,46.0,29.84,West,270,0.0,1.0,46,0.00,,,0.00,Rainwise IP-100,2013-06-16 00:33:00,
2013-06-15 20:38:00,67.3,46.0,29.85,WSW,247,5.0,5.0,46,0.00,,,0.00,Rainwise IP-100,2013-06-16 00:38:00,
2013-06-15 20:43:00,67.2,46.0,29.85,West,270,6.0,8.0,46,0.00,,,0.00,Rainwise IP-100,2013-06-16 00:43:00,
2013-06-15 20:48:00,67.3,45.0,29.85,West,270,4.0,9.0,45,0.00,,,0.00,Rainwise IP-100,2013-06-16 00:48:00,
2013-06-15 20:53:00,67.2,45.0,29.85,WSW,247,5.0,5.0,45,0.00,,,0.00,Rainwise IP-100,2013-06-16 00:53:00,
2013-06-15 20:58:00,67.1,46.0,29.86,West,270,6.0,6.0,46,0.00,,,0.00,Rainwise IP-100,2013-06-16 00:58:00,
2013-06-15 21:03:00,67.1,46.0,29.86,West,270,6.0,6.0,46,0.00,,,0.00,Rainwise IP-100,2013-06-16 01:03:00,
2013-06-15 21:08:00,66.8,45.0,29.86,West,270,0.0,2.0,46,0.00,,,0.00,Rainwise IP-100,2013-06-16 01:08:00,
2013-06-15 21:13:00,66.4,46.0,29.86,West,270,9.0,9.0,48,0.00,,,0.00,Rainwise IP-100,2013-06-16 01:13:00,
2013-06-15 21:18:00,66.0,46.0,29.87,West,270,9.0,9.0,49,0.00,,,0.00,Rainwise IP-100,2013-06-16 01:18:00,
2013-06-15 21:23:00,65.6,47.0,29.87,West,270,8.0,8.0,50,0.00,,,0.00,Rainwise IP-100,2013-06-16 01:23:00,
2013-06-15 21:28:00,65.3,47.0,29.87,West,270,8.0,8.0,51,0.00,,,0.00,Rainwise IP-100,2013-06-16 01:28:00,
2013-06-15 21:33:00,65.1,47.0,29.87,West,270,6.0,6.0,51,0.00,,,0.00,Rainwise IP-100,2013-06-16 01:33:00,
2013-06-15 21:38:00,65.0,47.0,29.88,West,270,6.0,6.0,52,0.00,,,0.00,Rainwise IP-100,2013-06-16 01:38:00,
2013-06-15 21:43:00,64.9,47.0,29.88,West,270,7.0,7.0,52,0.00,,,0.00,Rainwise IP-100,2013-06-16 01:43:00,
2013-06-15 21:48:00,64.7,47.0,29.88,West,270,7.0,7.0,52,0.00,,,0.00,Rainwise IP-100,2013-06-16 01:48:00,
2013-06-15 21:53:00,64.5,47.0,29.88,West,270,8.0,8.0,52,0.00,,,0.00,Rainwise IP-100,2013-06-16 01:53:00,
2013-06-15 21:58:00,64.4,47.0,29.88,West,270,9.0,9.0,52,0.00,,,0.00,Rainwise IP-100,2013-06-16 01:58:00,
2013-06-15 22:03:00,64.4,47.0,29.88,West,270,6.0,0.0,52,0.00,,,0.00,Rainwise IP-100,2013-06-16 02:03:00,
2013-06-15 22:08:00,64.4,46.0,29.87,NW,315,4.0,0.0,51,0.00,,,0.00,Rainwise IP-100,2013-06-16 02:08:00,
2013-06-15 22:13:00,64.6,46.0,29.88,West,270,6.0,8.0,51,0.00,,,0.00,Rainwise IP-100,2013-06-16 02:13:00,
2013-06-15 22:18:00,64.8,46.0,29.88,WNW,292,7.0,7.0,50,0.00,,,0.00,Rainwise IP-100,2013-06-16 02:18:00,
2013-06-15 22:23:00,65.0,46.0,29.88,West,270,7.0,0.0,50,0.00,,,0.00,Rainwise IP-100,2013-06-16 02:23:00,
2013-06-15 22:28:00,65.0,46.0,29.87,WSW,247,4.0,4.0,50,0.00,,,0.00,Rainwise IP-100,2013-06-16 02:28:00,
2013-06-15 22:33:00,64.9,47.0,29.87,West,270,8.0,8.0,51,0.00,,,0.00,Rainwise IP-100,2013-06-16 02:33:00,
2013-06-15 22:38:00,64.7,46.0,29.88,West,270,7.0,7.0,51,0.00,,,0.00,Rainwise IP-100,2013-06-16 02:38:00,
2013-06-15 22:43:00,64.6,46.0,29.87,West,270,9.0,9.0,51,0.00,,,0.00,Rainwise IP-100,2013-06-16 02:43:00,
2013-06-15 22:48:00,64.6,46.0,29.88,West,270,0.0,5.0,51,0.00,,,0.00,Rainwise IP-100,2013-06-16 02:48:00,
2013-06-15 22:53:00,64.9,46.0,29.88,West,270,0.0,5.0,50,0.00,,,0.00,Rainwise IP-100,2013-06-16 02:53:00,
2013-06-15 22:58:00,65.0,46.0,29.88,West,270,0.0,6.0,50,0.00,,,0.00,Rainwise IP-100,2013-06-16 02:58:00,
2013-06-15 23:03:00,64.9,46.0,29.88,West,270,0.0,4.0,50,0.00,,,0.00,Rainwise IP-100,2013-06-16 03:03:00,
2013-06-15 23:08:00,64.7,46.0,29.88,West,270,9.0,9.0,50,0.00,,,0.00,Rainwise IP-100,2013-06-16 03:08:00,
2013-06-15 23:13:00,64.7,46.0,29.88,WSW,247,0.0,6.0,50,0.00,,,0.00,Rainwise IP-100,2013-06-16 03:13:00,
2013-06-15 23:18:00,64.7,46.0,29.88,WNW,292,9.0,9.0,50,0.00,,,0.00,Rainwise IP-100,2013-06-16 03:18:00,
2013-06-15 23:23:00,64.4,46.0,29.88,WNW,292,0.0,5.0,51,0.00,,,0.00,Rainwise IP-100,2013-06-16 03:23:00,
2013-06-15 23:28:00,64.0,46.0,29.88,West,270,0.0,8.0,52,0.00,,,0.00,Rainwise IP-100,2013-06-16 03:28:00,
2013-06-15 23:33:00,63.9,47.0,29.88,West,270,0.0,6.0,53,0.00,,,0.00,Rainwise IP-100,2013-06-16 03:33:00,
2013-06-15 23:38:00,63.9,47.0,29.88,West,270,0.0,6.0,53,0.00,,,0.00,Rainwise IP-100,2013-06-16 03:38:00,
2013-06-15 23:43:00,64.0,46.0,29.88,West,270,0.0,6.0,52,0.00,,,0.00,Rainwise IP-100,2013-06-16 03:43:00,
2013-06-15 23:48:00,64.1,46.0,29.88,WNW,292,0.0,7.0,52,0.00,,,0.00,Rainwise IP-100,2013-06-16 03:48:00,
2013-06-15 23:53:00,64.2,46.0,29.88,West,270,6.0,6.0,52,0.00,,,0.00,Rainwise IP-100,2013-06-16 03:53:00,
2013-06-15 23:58:00,64.2,46.0,29.88,West,270,0.0,5.0,52,0.00,,,0.00,Rainwise IP-100,2013-06-16 03:58:00,